Weather History for KEIK - December, 2012

Change the Weather History Date:

Saturday, December 22, 2012

  Actual Average (KBJC) Record (KBJC)
Temperature  
Mean Temperature 30 °F -  
Max Temperature 49 °F 42 °F 64 °F (2005)
Min Temperature 11 °F 22 °F -24 °F (1990)
Degree Days  
Heating Degree Days 35    
Moisture  
Dew Point 10 °F    
Average Humidity 54    
Maximum Humidity 80    
Minimum Humidity 18    
Precipitation  
Precipitation 0.00 in - - ()
Sea Level Pressure  
Sea Level Pressure 29.98 in    
Wind  
Wind Speed 2 mph (South)    
Max Wind Speed 7 mph    
Max Gust Speed -    
Visibility 10 miles    
Events      
Averages and records for this station are not official NWS values.
T = Trace of Precipitation, MM = Missing Value Source: NWS Daily Summary

Daily Weather History Graph

Daily Weather History Graph

Search for Another Location

Airport or City:

Trip Planner

Search our weather history database for the weather conditions in past years. The results will help you decide how hot, cold, wet, or windy it might be!

Date:

Astronomy

Dec. 22, 2012 Rise Set
Actual Time 7:19 AM MST 4:38 PM MST
Civil Twilight 6:48 AM MST 5:09 PM MST
Nautical Twilight 6:14 AM MST 5:43 PM MST
Astronomical Twilight 5:41 AM MST 6:16 PM MST
Moon 12:57 PM MST (12/22) 2:07 AM MST (12/22)
Length of Visible Light 10h 20m
Length of Day
9h 19m
Waxing Gibbous, 74% of the Moon is Illuminated
Dec 22
Waxing Gibbous
Dec 28
Full
Jan 4
Last Quarter
Jan 11
New
Jan 18
First Quarter

Hourly Weather History & Observations

Time (MST) Temp. Windchill Dew Point Humidity Pressure Visibility Wind Dir Wind Speed Gust Speed Precip Events Conditions
12:16 AM 17.4 °F 9.1 °F 11.3 °F 77% 30.03 in 10.0 mi SSW 5.8 mph - N/A   Clear
12:36 AM 23.2 °F - 10.4 °F 58% 30.03 in 10.0 mi Calm Calm - N/A   Clear
12:56 AM 22.3 °F 14.9 °F 9.7 °F 58% 30.03 in 10.0 mi SW 5.8 mph - N/A   Clear
1:16 AM 24.3 °F - 9.3 °F 53% 30.02 in 10.0 mi Calm Calm - N/A   Clear
1:36 AM 21.2 °F 12.6 °F 9.5 °F 61% 30.02 in 10.0 mi South 6.9 mph - N/A   Clear
1:56 AM 24.1 °F - 8.6 °F 52% 30.03 in 10.0 mi Calm Calm - N/A   Clear
2:16 AM 23.5 °F - 8.4 °F 53% 30.02 in 10.0 mi Calm Calm - N/A   Clear
2:36 AM 21.0 °F 16.2 °F 9.5 °F 61% 30.01 in 10.0 mi South 3.5 mph - N/A   Clear
2:56 AM 21.7 °F 15.5 °F 9.1 °F 58% 30.01 in 10.0 mi South 4.6 mph - N/A   Clear
3:16 AM 22.8 °F 18.2 °F 9.1 °F 56% 29.99 in 10.0 mi SE 3.5 mph - N/A   Clear
3:36 AM 22.8 °F 15.5 °F 8.4 °F 54% 30.01 in 10.0 mi SSE 5.8 mph - N/A   Clear
3:56 AM 21.6 °F - 7.7 °F 55% 30.00 in 10.0 mi Calm Calm - N/A   Clear
4:16 AM 21.9 °F - 8.1 °F 55% 30.00 in 10.0 mi Calm Calm - N/A   Clear
4:36 AM 19.4 °F - 8.8 °F 63% 30.01 in 10.0 mi Calm Calm - N/A   Clear
4:56 AM 21.4 °F 16.6 °F 7.7 °F 56% 30.01 in 10.0 mi NNW 3.5 mph - N/A   Clear
5:16 AM 18.5 °F 10.4 °F 7.3 °F 62% 30.01 in 10.0 mi North 5.8 mph - N/A   Clear
5:36 AM 16.7 °F 11.2 °F 8.4 °F 70% 30.01 in 10.0 mi South 3.5 mph - N/A   Clear
5:56 AM 14.9 °F 9.2 °F 7.7 °F 73% 30.01 in 10.0 mi South 3.5 mph - N/A   Clear
6:16 AM 14.9 °F - 7.7 °F 73% 30.01 in 10.0 mi Calm Calm - N/A   Clear
6:36 AM 11.1 °F - 5.9 °F 80% 30.01 in 10.0 mi Calm Calm - N/A   Clear
6:56 AM 13.5 °F - 6.6 °F 74% 30.01 in 10.0 mi Calm Calm - N/A   Clear
7:16 AM 12.6 °F - 6.6 °F 77% 30.01 in 10.0 mi Calm Calm - N/A   Clear
7:36 AM 14.0 °F - 7.2 °F 74% 30.02 in 10.0 mi Calm Calm - N/A   Clear
7:56 AM 13.1 °F - 6.6 °F 75% 30.02 in 10.0 mi Calm Calm - N/A   Clear
8:16 AM 14.4 °F - 8.4 °F 77% 30.03 in 10.0 mi Calm Calm - N/A   Clear
8:36 AM 16.2 °F - 10.4 °F 78% 30.03 in 10.0 mi Calm Calm - N/A   Clear
8:56 AM 19.8 °F - 12.9 °F 75% 30.03 in 10.0 mi Calm Calm - N/A   Clear
9:16 AM 24.1 °F - 14.5 °F 67% 30.04 in 10.0 mi Calm Calm - N/A   Clear
9:36 AM 28.0 °F - 14.2 °F 56% 30.05 in 10.0 mi Calm Calm - N/A   Clear
9:56 AM 32.2 °F - 15.3 °F 50% 30.05 in 10.0 mi Calm Calm - N/A   Clear
10:16 AM 34.7 °F - 10.6 °F 37% 30.05 in 10.0 mi Calm Calm - N/A   Clear
10:36 AM 37.0 °F - 9.0 °F 31% 30.04 in 10.0 mi Calm Calm - N/A   Clear
10:56 AM 39.6 °F - 7.5 °F 27% 30.03 in 10.0 mi Calm Calm - N/A   Clear
11:16 AM 40.8 °F - 7.9 °F 26% 30.02 in 10.0 mi Calm Calm - N/A   Clear
11:36 AM 41.5 °F - 9.1 °F 27% 30.00 in 10.0 mi Calm Calm - N/A   Clear
11:56 AM 44.1 °F 42.5 °F 7.2 °F 22% 30.00 in 10.0 mi SW 3.5 mph - N/A   Clear
12:16 PM 44.6 °F - 5.7 °F 20% 29.98 in 10.0 mi Calm Calm - N/A   Clear
12:36 PM 45.5 °F - 6.8 °F 21% 29.98 in 10.0 mi Calm Calm - N/A   Clear
12:56 PM 45.9 °F - 6.3 °F 20% 29.97 in 10.0 mi Calm Calm - N/A   Clear
1:16 PM 47.3 °F - 6.4 °F 19% 29.97 in 10.0 mi Calm Calm - N/A   Clear
1:36 PM 47.5 °F - 6.6 °F 19% 29.96 in 10.0 mi Calm Calm - N/A   Clear
1:56 PM 48.0 °F - 6.4 °F 18% 29.96 in 10.0 mi Calm Calm - N/A   Clear
2:16 PM 48.0 °F - 7.5 °F 19% 29.96 in 10.0 mi Calm Calm - N/A   Clear
2:36 PM 48.6 °F - 7.5 °F 19% 29.96 in 10.0 mi Calm Calm - N/A   Clear
2:56 PM 49.3 °F - 8.1 °F 19% 29.96 in 10.0 mi Calm Calm - N/A   Clear
3:16 PM 47.5 °F - 8.6 °F 21% 29.96 in 10.0 mi Calm Calm - N/A   Clear
3:36 PM 45.1 °F 43.7 °F 11.3 °F 25% 29.96 in 10.0 mi North 3.5 mph - N/A   Clear
3:56 PM 46.2 °F - 12.7 °F 26% 29.96 in 10.0 mi Calm Calm - N/A   Clear
4:16 PM 44.2 °F - 11.1 °F 26% 29.96 in 10.0 mi Calm Calm - N/A   Clear
4:36 PM 39.6 °F - 11.5 °F 32% 29.96 in 10.0 mi Calm Calm - N/A   Clear
4:56 PM 34.0 °F - 13.8 °F 44% 29.96 in 10.0 mi Calm Calm - N/A   Clear
5:16 PM 30.0 °F - 13.1 °F 49% 29.95 in 10.0 mi Calm Calm - N/A   Clear
5:36 PM 27.9 °F - 14.0 °F 56% 29.95 in 10.0 mi Calm Calm - N/A   Clear
5:56 PM 25.7 °F 20.1 °F 14.0 °F 61% 29.95 in 10.0 mi SSW 4.6 mph - N/A   Clear
6:16 PM 24.8 °F 20.5 °F 13.6 °F 63% 29.94 in 10.0 mi SSW 3.5 mph - N/A   Clear
6:36 PM 24.1 °F - 13.5 °F 64% 29.94 in 10.0 mi Calm Calm - N/A   Clear
6:56 PM 25.3 °F - 12.7 °F 59% 29.94 in 10.0 mi Calm Calm - N/A   Clear
7:16 PM 20.8 °F - 11.1 °F 66% 29.94 in 10.0 mi Calm Calm - N/A   Clear
7:36 PM 20.5 °F - 12.0 °F 70% 29.93 in 10.0 mi Calm Calm - N/A   Clear
7:56 PM 19.2 °F - 12.0 °F 74% 29.92 in 10.0 mi Calm Calm - N/A   Clear
8:16 PM 19.0 °F - 11.7 °F 73% 29.92 in 10.0 mi Calm Calm - N/A   Clear
8:36 PM 17.6 °F - 11.8 °F 78% 29.93 in 10.0 mi Calm Calm - N/A   Clear
8:56 PM 17.4 °F 12.1 °F 11.1 °F 76% 29.92 in 10.0 mi SW 3.5 mph - N/A   Clear
9:16 PM 18.5 °F - 10.6 °F 71% 29.93 in 10.0 mi Calm Calm - N/A   Clear
9:36 PM 19.2 °F - 10.9 °F 70% 29.92 in 10.0 mi Calm Calm - N/A   Clear
9:56 PM 17.8 °F - 9.5 °F 70% 29.92 in 10.0 mi Calm Calm - N/A   Clear
10:16 PM 17.6 °F 12.3 °F 10.0 °F 72% 29.91 in 10.0 mi SSE 3.5 mph - N/A   Clear
10:36 PM 15.1 °F - 9.5 °F 79% 29.91 in 10.0 mi Calm Calm - N/A   Clear
10:56 PM 15.1 °F - 9.1 °F 77% 29.91 in 10.0 mi Calm Calm - N/A   Clear
11:16 PM 15.3 °F - 9.5 °F 78% 29.90 in 10.0 mi Calm Calm - N/A   Clear
11:36 PM 15.8 °F 6.1 °F 9.5 °F 76% 29.88 in 10.0 mi SSE 6.9 mph - N/A   Clear
11:56 PM 17.4 °F - 9.5 °F 71% 29.88 in 10.0 mi Calm Calm - N/A   Clear